SCP
0 0 0 0 0 0 0 0 0 0 0 0 0 0 0 0 1 1 1 1 1 1 1 1 2 2 1 1 2 2 2 2 2 1 1 1 1 1 1 1 1 1 1 1
0 0 0 0 0 0 0 0 0 0 0 0 0 0 0 0 1 1 1 1 1 1 1 2 2 2 1 2 2 2 2 2 2 1 1 1 1 1 1 1 1 1 1 1
0 0 0 0 0 0 0 0 0 0 0 0 0 0 0 1 1 1 1 1 1 1 2 2 2 2 2 2 2 2 2 2 2 1 1 1 1 1 1 1 1 1 1 1
0 0 0 0 0 0 0 0 0 0 0 0 0 0 1 1 1 1 1 1 1 1 2 2 2 1 1 2 2 2 2 2 1 1 1 1 1 1 2 2 1 1 1 1
0 0 0 0 0 0 0 0 0 0 0 0 0 0 1 1 1 1 1 1 1 1 1 1 1 1 1 1 1 1 1 1 1 1 1 1 1 2 2 2 2 1 1 1
0 0 0 0 0 0 0 0 0 0 0 0 0 0 1 1 1 1 1 1 1 1 1 1 1 1 1 1 1 1 1 1 1 1 1 1 1 2 2 2 2 2 1 1
0 0 0 0 0 0 0 0 0 0 0 0 0 0 0 0 1 1 1 1 1 1 1 1 1 1 1 1 1 1 1 1 1 1 1 1 2 2 2 2 2 2 1 1
0 0 0 0 0 0 0 0 0 0 0 0 0 0 0 0 0 1 1 1 1 1 1 1 1 1 1 1 1 1 1 1 1 1 1 1 2 2 2 2 2 1 1 1
0 0 0 0 0 0 0 0 0 0 0 0 0 0 0 0 0 0 1 1 1 1 1 1 1 1 1 1 1 1 1 1 1 1 1 1 2 2 2 2 1 1 1 1
0 0 0 0 0 0 0 0 0 0 0 0 0 0 0 0 0 0 1 1 1 1 1 1 1 1 1 1 1 1 1 1 1 1 1 1 1 2 2 2 1 1 1 1
0 0 0 0 0 0 0 0 0 0 0 0 0 0 0 0 0 0 1 0 0 0 0 1 1 1 1 1 1 1 1 1 1 1 1 1 1 1 1 1 1 1 1 1
0 0 0 0 0 0 0 0 0 0 0 0 0 0 0 0 0 1 1 0 0 0 0 1 1 1 1 1 1 1 1 1 1 1 1 1 1 1 1 1 0 0 0 0
0 0 0 0 0 0 0 0 0 0 0 0 0 0 0 0 1 1 0 0 0 0 0 1 1 0 0 0 0 1 0 0 0 0 1 1 1 1 0 0 0 0 0 0
0 0 0 0 0 0 0 0 0 0 0 0 0 0 0 0 0 0 0 0 0 0 0 1 1 0 0 0 0 0 0 0 0 0 0 1 1 1 0 0 0 0 0 0
0 0 0 0 0 0 0 0 0 0 0 0 0 0 0 0 0 0 0 0 0 0 0 0 0 0 0 0 0 0 0 0 0 0 0 0 0 1 0 0 0 0 0 0
0 0 0 0 0 0 0 0 0 0 0 0 0 0 0 0 0 0 0 0 0 0 0 0 0 0 0 0 0 0 0 0 0 0 0 0 0 0 0 0 0 0 0 0
0 0 0 0 0 0 0 0 0 0 0 0 0 0 0 0 0 0 0 0 0 0 0 0 0 0 0 0 0 0 0 0 0 0 0 0 0 0 0 0 0 0 0 0
0 0 0 0 0 0 0 0 0 0 0 0 0 0 0 0 0 0 0 0 0 0 0 0 0 0 0 0 0 0 0 0 0 0 0 0 0 0 0 0 0 0 0 0
0 0 0 0 0 0 0 0 0 0 0 0 0 0 0 0 0 0 0 0 0 0 0 0 0 0 0 0 0 0 0 0 0 0 0 0 0 0 0 0 0 0 0 0
0 0 0 0 0 0 0 0 0 0 0 0 0 0 0 0 0 0 0 0 0 0 0 0 0 0 0 0 0 0 0 0 0 0 0 0 0 0 0 0 0 0 0 0
0 0 0 0 0 0 0 0 0 0 0 0 0 0 0 0 0 0 0 0 0 0 0 0 0 0 0 0 0 0 0 0 0 0 0 0 0 0 0 0 0 0 0 0
0 0 0 0 0 0 0 0 0 0 0 0 0 0 0 0 0 0 0 0 0 0 0 0 0 0 0 0 0 0 0 0 0 0 0 0 0 0 0 0 0 0 0 0
0 0 0 0 0 0 0 0 0 0 0 0 0 0 0 0 0 0 0 0 0 0 0 0 0 0 0 0 0 0 0 0 0 0 0 0 0 0 0 0 0 0 0 0
0 0 0 0 0 0 0 0 0 0 0 0 0 0 0 0 0 0 0 0 0 0 0 0 0 0 0 0 0 0 0 0 0 0 0 0 0 0 0 0 0 0 0 0
0 0 0 0 0 0 0 0 0 0 0 0 0 0 0 0 0 0 0 0 0 0 0 0 0 0 0 0 0 0 0 0 0 0 0 0 0 0 0 0 0 0 0 0
0 0 0 0 0 0 0 0 0 0 0 0 0 0 0 0 0 0 0 0 0 0 0 0 0 0 0 0 0 0 0 0 0 0 0 0 0 0 0 0 0 0 0 0
0 0 0 0 0 0 0 0 0 0 0 0 0 0 0 0 0 0 0 0 0 0 0 0 0 0 0 0 0 0 0 0 0 0 0 0 0 0 0 0 0 0 0 0
Wind_Speed
10 9 9 11 12 12 14 14 14 11 10 6 3 3 2 2 2 2 2 2 2 2 2 3 4 5 6 6 6 6 7 7 7 6 6 6 6 7 7 7 7 7 7 7
11 11 11 14 14 14 15 14 14 14 11 4 3 2 3 2 2 2 2 2 2 1 1 2 3 4 5 6 6 6 6 6 6 6 6 6 7 7 7 8 7 7 7 7
12 10 12 16 14 14 13 12 13 13 8 4 3 3 3 3 3 2 2 2 1 1 1 2 2 2 3 4 5 6 6 5 5 6 6 6 7 7 8 8 7 7 8 7
10 10 16 7 2 7 10 10 9 8 6 5 4 4 3 3 2 2 1 1 1 1 1 1 1 1 1 2 3 4 5 5 6 6 6 6 7 8 8 7 7 7 7 7
10 13 14 9 5 5 8 9 6 6 6 5 4 4 3 2 3 2 1 1 1 0 1 1 1 1 1 1 2 3 4 5 6 6 6 6 7 7 7 7 7 7 7 7
11 13 14 6 1 2 7 10 3 5 5 4 4 7 1 2 3 2 2 1 1 1 1 1 1 1 0 0 2 3 3 4 4 5 6 6 6 6 6 6 7 7 7 7
14 15 11 1 1 4 10 3 2 3 4 4 4 4 4 2 1 1 2 1 1 1 1 1 0 0 0 1 1 3 3 4 4 4 5 6 5 5 5 6 6 6 6 6
11 14 9 4 1 4 5 5 4 3 3 3 2 1 1 1 1 1 1 2 1 1 1 0 0 1 1 2 2 3 4 4 4 4 5 4 5 5 5 5 6 6 5 6
7 5 4 2 4 4 5 5 5 4 4 4 4 3 2 1 1 2 2 2 2 2 1 1 1 1 2 2 3 3 3 4 4 4 4 4 5 5 6 6 5 5 4 5
9 8 6 6 6 6 5 6 6 5 5 6 6 5 4 3 2 3 3 3 3 3 2 2 2 2 3 3 3 3 4 3 3 4 4 4 4 5 5 5 5 4 5 5
12 11 10 8 7 7 7 7 7 6 6 6 6 6 5 4 3 3 3 3 3 3 3 3 3 3 3 3 3 3 3 3 3 3 3 2 3 3 4 3 3 4 4 4
10 8 9 10 9 8 8 8 8 7 7 6 6 5 5 4 4 3 3 4 4 4 4 4 3 3 2 2 2 3 3 3 3 3 2 3 3 2 0 2 0 2 4 5
11 11 11 11 10 9 9 9 8 8 7 6 5 5 5 5 4 4 4 4 5 5 4 4 4 3 2 2 2 3 4 3 3 3 3 3 3 3 2 1 1 2 3 4
11 11 12 11 10 9 9 9 8 7 6 6 5 5 5 5 5 5 5 4 5 5 5 4 4 3 3 3 2 3 4 3 4 3 4 3 3 3 3 3 2 1 2 4
11 12 12 11 11 10 9 8 7 7 6 5 5 5 6 6 5 5 4 4 5 5 5 5 4 4 3 3 3 3 4 3 3 3 3 3 3 3 3 3 3 2 2 2
11 11 11 11 10 9 8 7 7 7 6 6 5 5 6 6 5 5 4 5 5 5 4 4 4 4 3 4 4 3 3 2 3 4 3 3 3 3 3 3 3 2 3 2
11 11 10 9 8 8 7 7 7 6 6 6 6 5 6 5 5 5 5 5 5 5 4 4 4 3 3 4 4 3 3 2 4 4 3 3 3 3 3 2 2 2 3 1
10 10 9 8 7 7 7 6 6 6 6 5 6 6 6 5 5 4 4 4 4 5 4 4 3 3 3 4 4 4 3 3 3 3 2 2 2 2 2 2 3 3 3 2
7 7 7 7 7 6 6 6 5 5 5 5 5 5 5 5 5 4 4 4 5 5 4 3 2 4 4 3 3 3 4 3 2 2 2 1 2 3 2 2 3 3 3 2
4 4 3 3 4 5 5 4 4 4 4 4 4 4 5 5 4 4 4 5 4 4 3 3 4 3 3 2 3 3 3 3 2 2 2 2 2 2 2 2 2 2 2 2
2 1 1 1 2 3 3 3 3 4 3 3 4 4 4 4 3 3 4 4 3 2 3 3 3 2 2 1 3 3 2 2 2 2 1 1 1 2 2 2 2 2 1 1
3 1 1 1 1 2 2 3 3 3 2 3 3 3 3 4 4 3 4 3 2 1 2 3 1 1 1 3 3 2 1 1 1 1 1 1 2 2 1 1 1 1 1 1
3 2 2 1 2 2 2 2 2 2 2 3 3 3 3 3 3 3 3 1 1 0 2 1 2 1 3 4 2 1 1 1 1 1 1 1 1 1 1 2 1 1 1 1
4 3 3 2 2 2 2 2 2 2 2 2 2 2 3 2 2 2 1 1 0 1 1 2 3 2 4 2 1 0 0 1 1 1 1 1 1 1 1 1 1 1 1 2
4 4 3 3 2 2 2 1 1 1 1 1 1 1 1 1 1 1 1 1 1 1 1 3 3 3 3 0 0 0 0 0 0 1 1 1 1 1 1 1 1 2 2 2
4 3 3 3 2 2 2 2 2 1 1 1 2 2 2 1 1 0 0 1 1 1 0 1 1 2 1 0 0 0 0 1 1 1 0 0 0 0 1 1 2 1 1 1
3 2 2 2 2 2 2 2 2 2 2 2 2 2 2 2 1 1 1 1 1 1 1 1 1 0 1 1 0 0 0 1 1 0 0 0 0 0 0 1 1 1 1 1
Wind_Direction
269 277 266 254 248 238 242 255 263 264 264 268 265 274 276 249 218 207 200 183 189 196 191 194 196 196 200 200 193 193 193 197 199 200 199 199 200 205 209 211 213 218 224 226
257 255 257 256 252 247 244 250 254 259 260 273 286 265 260 250 234 222 218 212 196 182 171 173 191 197 197 198 191 190 198 201 193 193 197 199 200 203 210 214 215 214 219 223
260 255 256 247 243 244 243 245 253 256 265 268 253 265 271 275 256 246 249 250 226 197 175 172 182 185 192 195 193 194 199 199 196 199 200 203 204 206 212 214 213 215 219 223
262 255 248 255 265 255 249 246 249 260 267 269 272 271 274 292 291 278 273 271 248 224 165 161 161 159 180 181 187 196 203 208 207 207 205 203 206 210 212 216 216 218 222 226
255 250 251 241 223 236 248 247 253 261 264 272 272 243 218 18 339 311 311 322 309 213 114 73 49 85 123 178 193 211 212 216 217 216 216 212 212 213 211 211 218 220 221 224
244 253 255 255 144 267 257 244 237 261 263 268 251 245 220 29 321 332 14 31 35 54 82 89 46 42 130 200 203 230 239 233 229 225 224 223 220 215 215 216 222 227 224 226
244 248 252 322 60 227 239 274 9 295 283 269 252 307 27 27 353 35 48 42 31 17 10 40 26 28 266 292 274 264 258 245 236 230 225 221 221 219 219 222 224 233 231 230
242 248 247 71 199 255 329 352 328 311 295 288 294 332 342 337 359 14 15 16 359 332 337 29 192 215 232 256 272 270 258 246 243 238 237 222 214 216 221 226 224 224 230 236
260 275 21 351 303 311 310 302 302 299 303 289 274 277 289 296 302 311 327 333 315 299 287 270 245 238 248 267 265 256 253 244 240 237 235 228 223 218 218 221 232 229 225 238
266 259 279 287 286 285 290 291 293 294 285 277 276 282 287 289 291 290 301 299 289 282 284 288 282 279 274 275 267 246 243 244 237 227 225 226 236 232 231 231 231 233 234 238
261 273 282 270 278 281 287 285 283 280 274 273 275 278 283 286 287 290 294 298 293 291 289 289 288 290 295 298 283 256 252 253 253 244 232 243 251 271 260 263 263 248 253 252
270 288 287 290 292 292 284 281 280 279 275 272 267 273 278 281 283 282 283 288 283 285 289 292 285 283 296 305 294 276 261 254 258 256 236 235 233 240 342 259 187 226 253 261
277 288 289 290 287 285 281 279 277 273 268 268 270 271 272 274 276 278 277 275 279 283 288 286 277 273 272 270 272 276 281 282 277 271 261 250 242 238 248 235 203 231 227 226
274 276 274 277 281 278 274 273 271 268 262 261 263 265 261 257 259 266 270 273 275 275 275 274 268 267 267 260 260 270 274 273 267 265 263 262 256 254 253 254 253 262 217 204
272 271 272 275 273 272 269 261 257 255 254 251 256 261 260 256 257 263 269 270 269 267 266 268 266 267 266 262 258 259 264 268 274 281 275 268 260 253 251 249 250 251 258 212
277 274 271 268 267 266 262 260 259 259 260 258 255 260 259 254 254 260 264 263 262 266 273 275 272 269 261 258 258 251 247 248 268 275 272 265 260 258 255 248 246 255 262 258
271 269 268 268 267 265 265 266 266 262 261 261 261 259 256 251 252 256 260 258 261 267 266 266 266 264 257 251 254 258 257 225 215 249 259 267 267 263 265 265 262 267 274 285
266 267 267 270 270 269 267 266 265 262 260 260 258 254 254 254 257 263 267 268 266 264 264 265 266 261 249 242 249 258 254 251 245 254 262 260 272 267 256 260 266 272 278 225
270 265 263 265 266 262 262 264 261 258 256 252 249 249 253 257 261 267 267 263 261 262 268 271 239 244 246 245 253 244 250 246 244 247 259 263 257 265 262 259 266 271 282 284
273 264 264 265 266 266 263 265 262 253 249 247 248 245 245 248 251 256 261 263 265 272 276 274 254 246 244 229 245 248 246 247 239 237 247 258 263 268 269 270 268 272 276 279
347 322 282 274 285 288 283 277 271 263 254 251 251 249 250 254 251 249 255 261 259 265 270 249 242 243 241 256 230 243 235 227 224 226 237 253 267 266 265 273 276 279 278 279
12 17 9 357 325 307 302 285 271 269 265 265 262 254 255 255 251 250 255 269 280 307 264 245 236 61 315 264 230 223 218 217 213 221 240 256 260 260 268 273 270 278 284 281
358 354 347 333 307 302 306 296 279 284 282 272 263 260 262 273 277 271 266 283 286 302 268 285 78 116 265 249 234 204 200 207 215 228 240 247 251 254 247 244 244 259 263 269
349 348 344 341 349 344 338 339 327 310 296 283 275 272 270 262 265 270 288 130 130 238 269 91 132 204 248 245 241 233 205 233 237 235 249 250 240 240 244 246 250 253 258 261
350 345 348 353 357 347 339 326 318 320 300 314 327 299 296 327 314 338 4 67 109 214 140 128 165 220 243 261 204 236 165 151 294 267 231 238 247 239 249 254 249 249 255 262
347 348 356 354 0 345 330 330 332 345 353 354 2 12 19 18 4 32 77 119 111 92 90 142 172 214 251 325 311 299 242 163 184 202 171 230 220 236 278 296 288 282 289 307
343 352 350 355 6 3 353 349 356 2 358 353 9 29 36 30 34 46 55 64 64 57 59 59 48 13 352 18 38 346 232 199 201 186 163 222 273 285 333 334 339 352 358 1